M I D A S
Marine Information and Data Acquisition System
Tripno 1758 of the Zeeleeuw from 2009-08-31 08:15:00 to 2009-08-31 12:35:00
Back to CruiseResearch ActivitiesStationsMapUnderway DataData graphs

EquipmentUnitsComment
TimeDGPSUTC
LatitudeDGPSDM.mWGS84
LongitudeDGPSDM.mWGS84
TemperatureSBE03/SBE38deg celciusITS90
ConductivitySBE21S/mITS90
SalinitySBE21 Practical Salinity Units
ChlorophylAChelsea fluorimeterg/lCalibrated in Aceton
Missing or incorrect values are displayed as -999
Sea surface data collected by the RV Zeeleeuw from 2009-08-31 08:15:00 to 2009-08-31 12:35:00
Time Latitude Longitude Temperature Conductivity Salinity ChlorophylA
2009-08-31 08:17:10 51°26.766 2°49.422 -999 -999 -999 -999
2009-08-31 08:19:10 51°26.843 2°49.45 -999 -999 -999 -999
2009-08-31 08:21:10 51°26.874 2°49.469 -999 -999 -999 -999
2009-08-31 08:23:10 51°26.897 2°49.496 -999 -999 -999 -999
2009-08-31 08:25:10 51°26.921 2°49.534 -999 -999 -999 -999
2009-08-31 08:27:10 51°26.942 2°49.579 -999 -999 -999 -999
2009-08-31 08:29:10 51°26.973 2°49.601 -999 -999 -999 -999
2009-08-31 08:31:10 51°26.88 2°49.544 -999 -999 -999 -999
2009-08-31 08:33:10 51°26.531 2°49.579 -999 -999 -999 -999
2009-08-31 08:35:10 51°26.175 2°49.672 -999 -999 -999 -999
2009-08-31 08:37:10 51°25.824 2°49.792 -999 -999 -999 -999
2009-08-31 08:39:10 51°25.473 2°49.908 -999 -999 -999 -999
2009-08-31 08:41:10 51°25.123 2°50.024 -999 -999 -999 -999
2009-08-31 08:43:10 51°24.77 2°50.144 -999 -999 -999 -999
2009-08-31 08:45:10 51°24.417 2°50.263 -999 -999 -999 -999
2009-08-31 08:47:10 51°24.065 2°50.375 -999 -999 -999 -999
2009-08-31 08:49:10 51°23.712 2°50.487 -999 -999 -999 -999
2009-08-31 08:51:10 51°23.359 2°50.597 -999 -999 -999 -999
2009-08-31 08:53:10 51°23.005 2°50.706 -999 -999 -999 -999
2009-08-31 08:55:10 51°22.65 2°50.823 -999 -999 -999 -999
2009-08-31 08:57:10 51°22.298 2°50.948 -999 -999 -999 -999
2009-08-31 08:59:10 51°21.947 2°51.063 -999 -999 -999 -999
2009-08-31 09:01:10 51°21.595 2°51.169 -999 -999 -999 -999
2009-08-31 09:03:10 51°21.241 2°51.279 -999 -999 -999 -999
2009-08-31 09:05:10 51°20.886 2°51.366 -999 -999 -999 -999
2009-08-31 09:07:10 51°20.53 2°51.458 -999 -999 -999 -999
2009-08-31 09:09:10 51°20.174 2°51.549 -999 -999 -999 -999
2009-08-31 09:11:10 51°19.818 2°51.638 -999 -999 -999 -999
2009-08-31 09:13:10 51°19.464 2°51.727 -999 -999 -999 -999
2009-08-31 09:15:10 51°19.116 2°51.823 -999 -999 -999 -999
2009-08-31 09:17:10 51°18.766 2°51.912 -999 -999 -999 -999
2009-08-31 09:19:10 51°18.417 2°51.972 -999 -999 -999 -999
2009-08-31 09:21:10 51°18.066 2°52.025 -999 -999 -999 -999
2009-08-31 09:23:10 51°17.714 2°52.072 -999 -999 -999 -999
2009-08-31 09:25:10 51°17.368 2°52.177 -999 -999 -999 -999
2009-08-31 09:27:10 51°17.041 2°52.418 -999 -999 -999 -999
2009-08-31 09:29:10 51°16.728 2°52.71 -999 -999 -999 -999
2009-08-31 09:31:10 51°16.406 2°52.994 -999 -999 -999 -999
2009-08-31 09:33:10 51°16.086 2°53.281 -999 -999 -999 -999
2009-08-31 09:35:10 51°15.765 2°53.567 -999 -999 -999 -999
2009-08-31 09:37:10 51°15.445 2°53.857 -999 -999 -999 -999
2009-08-31 09:39:10 51°15.209 2°54.123 -999 -999 -999 -999
2009-08-31 09:41:10 51°15.16 2°54.306 -999 -999 -999 -999
2009-08-31 09:43:10 51°15.132 2°54.449 -999 -999 -999 -999
2009-08-31 09:45:10 51°15.099 2°54.575 -999 -999 -999 -999
2009-08-31 09:47:10 51°15.006 2°54.737 -999 -999 -999 -999
2009-08-31 09:49:10 51°14.955 2°54.853 -999 -999 -999 -999
2009-08-31 09:51:10 51°14.912 2°54.927 -999 -999 -999 -999
2009-08-31 09:53:10 51°14.87 2°54.994 -999 -999 -999 -999
2009-08-31 09:55:10 51°14.829 2°55.037 -999 -999 -999 -999
2009-08-31 09:57:10 51°14.793 2°55.051 -999 -999 -999 -999
2009-08-31 09:59:10 51°14.634 2°55.019 -999 -999 -999 -999
2009-08-31 10:01:10 51°14.377 2°55.075 -999 -999 -999 -999
2009-08-31 10:03:10 51°14.165 2°55.376 -999 -999 -999 -999
2009-08-31 10:05:10 51°13.943 2°55.543 -999 -999 -999 -999
2009-08-31 10:07:10 51°13.762 2°55.709 -999 -999 -999 -999
2009-08-31 10:09:10 51°13.688 2°55.867 -999 -999 -999 -999
2009-08-31 10:11:10 51°13.666 2°55.945 -999 -999 -999 -999
2009-08-31 10:13:10 51°13.662 2°55.959 -999 -999 -999 -999
2009-08-31 10:15:10 51°13.663 2°55.959 -999 -999 -999 -999